Location: ???? ??????? ????
(31.2176°N, 31.6797°E)
Time: 16:39:38
(UTC+00:00)

Cosmos 44 Rocket - Pass Details

Date: 29 October 2020
Orbit: 642 x 748 km, 65.1° (Epoch: 30 November)

Event Time Altitude Azimuth Distance (km) Brightness Sun altitude
Rises 16:29:42 0° 219° (SW) 2,956 7.2 -18.2°
Reaches altitude 10° 16:32:02 10° 225° (SW) 2,060 6.4 -18.7°
Maximum altitude 16:36:33 49° 300° (WNW) 866 4.1 -19.7°
Enters shadow 16:41:10 10° 15° (NNE) 2,109 5.6 -20.7°
